Location: Peebles
(55.6412°N, 3.1714°W)
Time: 10:17:56
(UTC+01:00)

FENGYUN 1C DEB - Pass Details

Date: 03 July 2022
Orbit: 580 x 1160 km, 99.3° (Epoch: 14 August)

Event Time Altitude Azimuth Distance (km) Brightness Sun altitude
Exits shadow 02:08:47 10° 219° (SW) 2,526 ? -10.6°
Maximum altitude 02:13:24 25° 273° (W) 1,839 ? -10.5°
Drops below altitude 10° 02:18:34 10° 327° (NNW) 2,858 ? -10.3°
Sets 02:21:47 0° 340° (NNW) 3,898 ? -10.2°
